Location: Killarney
(45.9719°N, 81.5115°W)
Time: 04:40:37
(UTC-04:00)

ISS - Visible Passes

Search period start: 07 July 2020 00:00
Search period end: 17 July 2020 00:00
Orbit: 417 x 421 km, 51.6° (Epoch: 07 July)

Date Brightness Start Highest point End Pass type
(mag) Time Alt. Az. Time Alt. Az. Time Alt. Az.
07 Jul -3.7 02:49:29 59° W 02:49:59 75° NNW 02:53:21 10° ENE visible
07 Jul -2.0 04:24:06 10° WNW 04:27:08 31° N 04:30:11 10° ENE visible
08 Jul -3.0 02:03:17 44° ENE 02:03:17 44° ENE 02:05:44 10° ENE visible
08 Jul -2.2 03:36:17 10° W 03:39:24 34° N 03:42:31 10° ENE visible
09 Jul -1.6 01:17:01 18° ENE 01:17:01 18° ENE 01:18:03 10° ENE visible
09 Jul -2.6 02:49:56 22° WNW 02:51:39 41° NNW 02:54:52 10° ENE visible
09 Jul -1.8 04:25:56 10° WNW 04:28:58 30° N 04:32:00 10° ENE visible
10 Jul -3.1 02:03:34 50° NW 02:03:56 53° NNW 02:07:15 10° ENE visible
10 Jul -1.8 03:38:11 10° WNW 03:41:11 29° N 03:44:12 10° ENE visible
11 Jul -3.0 01:17:04 47° NE 01:17:04 47° NE 01:19:37 10° ENE visible
11 Jul -1.9 02:50:21 10° WNW 02:53:24 31° N 02:56:27 10° ENE visible
11 Jul -2.2 04:27:33 10° WNW 04:30:44 37° NNE 04:33:54 10° E visible
12 Jul -2.2 00:30:20 26° ENE 00:30:20 26° ENE 00:31:57 10° ENE visible
12 Jul -2.1 02:03:12 15° WNW 02:05:36 34° NNW 02:08:44 10° ENE visible
12 Jul -1.9 03:39:52 10° WNW 03:42:57 32° N 03:46:02 10° ENE visible
12 Jul -2.0 23:42:57 21° E 23:42:57 21° E 23:44:14 10° ENE visible
13 Jul -2.5 01:15:44 19° W 01:17:50 41° NNW 01:21:03 10° ENE visible
13 Jul -1.7 02:52:07 10° WNW 02:55:09 30° N 02:58:10 10° ENE visible
13 Jul -3.2 04:29:00 10° WNW 04:32:21 63° NNE 04:35:41 10° ESE visible
13 Jul -3.0 22:50:26 10° SSW 22:53:24 30° SE 22:56:23 10° ENE visible
14 Jul -3.0 00:26:46 10° W 00:30:04 54° NNW 00:33:23 10° ENE visible
14 Jul -1.7 02:04:18 10° WNW 02:07:19 29° N 02:10:20 10° ENE visible
14 Jul -2.7 03:41:20 10° WNW 03:44:36 46° NNE 03:47:52 10° E visible
14 Jul -2.4 22:03:24 10° S 22:05:52 19° SE 22:08:20 10° E visible
14 Jul -3.7 23:38:59 10° WSW 23:42:21 76° NNW 23:45:43 10° ENE visible
15 Jul -1.8 01:16:26 10° WNW 01:19:29 31° N 01:22:32 10° ENE visible
15 Jul -2.2 02:53:39 10° WNW 02:56:49 37° NNE 02:59:59 10° E visible
15 Jul -3.8 04:30:25 10° WNW 04:33:46 60° SSW 04:37:03 10° SE visible
15 Jul -3.9 22:51:18 10° SW 22:54:39 73° SSE 22:58:00 10° ENE visible
16 Jul -2.1 00:28:31 10° W 00:31:39 35° NNW 00:34:47 10° ENE visible
16 Jul -1.9 02:05:54 10° WNW 02:09:00 32° N 02:12:04 10° ENE visible
16 Jul -3.8 03:42:42 10° WNW 03:46:04 89° NNE 03:49:26 10° ESE visible
16 Jul -3.5 22:03:45 10° SW 22:06:59 46° SE 22:10:14 10° ENE visible
16 Jul -2.4 23:40:36 10° W 23:43:50 42° NNW 23:47:03 10° ENE visible
